Location: Frankfurt+am+Main
(50.1100°N, 8.4815°E)
Time: 00:34:01
(UTC+02:00)

ISS - Visible Passes

Search period start: 25 July 2017 00:00
Search period end: 04 August 2017 00:00
Orbit: 400 x 408 km, 51.6° (Epoch: 25 July)

Date Brightness Start Highest point End Pass type
(mag) Time Alt. Az. Time Alt. Az. Time Alt. Az.
25 Jul -3.8 00:07:16 10° WSW 00:10:32 81° NNW 00:13:49 10° ENE visible
25 Jul -3.6 01:43:54 10° WNW 01:47:09 68° N 01:50:24 10° E visible
25 Jul -3.7 03:20:26 10° WNW 03:23:37 49° SSW 03:26:46 10° SE visible
25 Jul -1.8 04:58:28 10° WSW 04:59:28 11° SW 05:00:27 10° SSW visible
25 Jul -4.0 23:14:57 10° WSW 23:18:12 78° SSE 23:21:27 10° ENE visible
26 Jul -3.5 00:51:31 10° W 00:54:46 64° N 00:56:44 21° ENE visible
26 Jul -1.9 02:28:04 10° WNW 02:29:15 21° WNW 02:29:15 21° WNW visible
26 Jul -3.8 22:22:42 10° SW 22:25:53 54° SSE 22:29:05 10° ENE visible
26 Jul -3.5 23:59:07 10° W 00:02:22 66° N 00:05:18 12° ENE visible
27 Jul -2.9 01:35:42 10° WNW 01:37:54 39° WNW 01:37:54 39° WNW visible
27 Jul -3.7 23:06:43 10° W 23:09:58 76° N 23:13:14 10° ENE visible
28 Jul -3.7 00:43:20 10° WNW 00:46:36 71° N 00:46:54 64° NE visible
28 Jul -3.9 22:14:19 10° WSW 22:17:35 86° SSE 22:20:52 10° ENE visible
28 Jul -3.5 23:50:56 10° W 23:54:11 64° N 23:56:01 23° E visible
29 Jul -1.8 01:27:27 10° WNW 01:28:38 20° W 01:28:38 20° W visible
29 Jul -3.5 22:58:29 10° W 23:01:44 65° N 23:04:59 10° E visible
30 Jul -3.5 00:35:04 10° WNW 00:37:49 60° WNW 00:37:49 60° WNW visible
30 Jul -3.6 22:06:02 10° W 22:09:17 72° N 22:12:33 10° ENE visible
30 Jul -3.8 23:42:39 10° WNW 23:45:55 75° NNE 23:47:01 38° E visible
31 Jul -1.2 01:19:13 10° W 01:19:38 13° W 01:19:38 13° W visible
31 Jul -3.5 22:50:13 10° WNW 22:53:27 66° N 22:56:14 13° E visible
01 Aug -2.7 00:26:44 10° WNW 00:28:52 35° W 00:28:52 35° W visible
01 Aug -3.4 21:57:45 10° W 22:00:59 64° N 22:04:14 10° E visible
01 Aug -4.0 23:34:18 10° WNW 23:37:34 79° SSW 23:38:06 58° SE visible
02 Aug -3.8 22:41:51 10° WNW 22:45:08 80° NNE 22:47:21 19° E visible
03 Aug -1.9 00:18:28 10° W 00:19:58 21° WSW 00:19:58 21° WSW visible
03 Aug -3.6 21:49:23 10° WNW 21:52:38 68° N 21:55:54 10° E visible
03 Aug -3.6 23:25:55 10° WNW 23:29:05 49° SSW 23:29:15 48° SSW visible
